Tracking 28335 objects as of 4-Dec-2023
HD Live streaming from Space Station
objects crossing your sky now

STARLINK-4679

Track STARLINK-4679 now!
10-day predictions
STARLINK-4679 is classified as:


NORAD ID: 53782
Int'l Code: 2022-111K
Perigee: 545.8 km
Apogee: 548.1 km
Inclination: 53.2 °
Period: 95.4 minutes
Semi major axis: 6917 km
RCS: Unknown
Launch date: September 11, 2022
Source: United States (US)
Launch site: AIR FORCE EASTERN TEST RANGE (AFETR)
Your satellite tracking list
Your tracking list is empty




NASA's NSSDC Master Catalog

Two Line Element Set (TLE):
1 53782U 22111K   23338.13659781 -.00002577  00000-0 -14396-3 0  9990
2 53782  53.2190  24.7438 0001648  56.2658 303.8491 15.08820704 68104
Source of the keplerian elements: AFSPC